Regional Weather Roundup
Issued by NWS

Home | Current Version | Previous Version | Graphics & Text | Print | Product List | Glossary On
Versions: 1 2 3 4 5 6 7 8 9 10 11 12 13 14 15 16 17 18 19 20 21 22 23 24 25 26 27 28 29 30 31 32 33 34 35 36 37 38 39 40 41 42 43 44 45 46 47 48 49 50
000
ASUS44 KMEG 270510
RWRTN
TENNESSEE HOURLY STATE WEATHER ROUNDUP
NATIONAL WEATHER SERVICE MEMPHIS TN
1100 PM CST FRI DEC 26 2014

TNZ002-004-019-021-049-052-054-088>092-270600-
WEST TENNESSEE

CITY           SKY/WX    TMP DP  RH WIND       PRES   REMARKS
MEMPHIS INTL   CLOUDY    52  44  74 SE9       30.14S
NWS MEMPHIS      N/A     51 N/A N/A MISG        N/A
JACKSON        CLOUDY    52  40  63 S12       30.17R
DYERSBURG      CLOUDY    48  32  53 SE6       30.17S
UNION CITY     CLOUDY    45  39  81 SE6       30.15F
PARIS          MOCLDY    43  37  81 SE7       30.18F
HUNTINGDON     MOCLDY    46  38  74 S6        30.19R
LEXINGTON      MOCLDY    46  37  71 S5        30.18S
SAVANNAH       CLEAR     45  39  81 SE6       30.20R
$$

TNZ008-025-027-028-033-062-065-066-270600-
NORTH MIDDLE TENNESSEE

CITY           SKY/WX    TMP DP  RH WIND       PRES   REMARKS
NASHVILLE      CLOUDY    48  37  65 S5        30.21F
CLARKSVILLE    PTCLDY    46  38  73 CALM      30.20R
SMYRNA         MOCLDY    47  38  71 S8        30.22F
COOKEVILLE     CLOUDY    46  36  66 S3        30.21F
CROSSVILLE     MOCLDY    45  34  65 VRB3      30.23F
$$

TNZ061-075-076-078-094-096-097-270600-
SOUTH MIDDLE TENNESSEE

CITY           SKY/WX    TMP DP  RH WIND       PRES   REMARKS
FAYETTEVILLE   PTCLDY    45  36  70 MISG      30.23R
TULLAHOMA      PTCLDY    43  37  81 CALM      30.23S
WINCHESTER     PTCLDY    48  36  61 SW5       30.23F
MCMINNVILLE    MOCLDY    43  43 100 CALM      30.23R
COLUMBIA       PTCLDY    46  46 100 S5        30.18F
SHELBYVILLE    PTCLDY    46  39  76 SE5       30.23F
$$

TNZ017-018-042-046-047-270600-
NORTHEAST TENNESSEE

CITY           SKY/WX    TMP DP  RH WIND       PRES   REMARKS
TRI CITIES     CLOUDY    39  32  76 CALM      30.22F
ELIZABETHTON   CLEAR     39  25  56 NE5       30.24F
$$

TNZ012-013-036-069-073-074-270600-
CENTRAL EAST TENNESSEE

CITY           SKY/WX    TMP DP  RH WIND       PRES   REMARKS
KNOXVILLE      MOCLDY    38  34  85 CALM      30.26S
OAK RIDGE      MOCLDY    40  36  86 CALM      30.27S
GATLINBURG     CLEAR     37  34  87 NW6       30.27R WCI  33
MORRISTOWN     CLEAR     41  34  75 CALM      30.24F
$$

TNZ083-085-099-270600-
SOUTHEAST TENNESSEE

CITY           SKY/WX    TMP DP  RH WIND       PRES   REMARKS
CHATTANOOGA    MOCLDY    39  38  96 W3        30.27F
$$

SKY/WX REPORTED AS FAIR MEANS FEW OR NO CLOUDS BELOW
12 THOUSAND FEET.



USA.gov is the U.S. government's official web portal to all federal, state and local government web resources and services.